Date,TemperatureHighF,TemperatureAvgF,TemperatureLowF,DewpointHighF,DewpointAvgF,DewpointLowF,HumidityHigh,HumidityAvg,HumidityLow,PressureMaxIn,PressureMinIn,WindSpeedMaxMPH,WindSpeedAvgMPH,GustSpeedMaxMPH,PrecipitationSumIn
2013-1-1,45.3,42.6,39.7,38.9,36.5,34.2,85,79,75,30.08,29.53,20,8,32,0.00
2013-1-2,58.3,52.7,44.8,52.5,48.7,38.9,89,86,79,30.30,30.05,17,6,30,0.00
2013-1-3,59.0,54.4,46.6,53.2,50.2,44.7,93,86,78,30.52,30.29,13,4,18,0.00
2013-1-4,52.0,47.2,40.8,47.4,44.7,39.8,100,91,82,30.56,30.44,9,1,16,0.00
2013-1-5,54.3,49.1,40.5,50.2,46.3,39.7,100,90,83,30.45,30.36,12,2,16,0.00
2013-1-6,51.4,48.4,41.4,48.6,45.9,40.3,100,91,79,30.45,30.21,14,3,19,0.00
2013-1-7,55.2,51.8,48.0,51.4,49.1,46.5,96,91,86,30.21,30.02,13,5,21,0.05
2013-1-8,55.0,48.4,35.2,51.5,45.1,34.2,96,88,80,30.26,30.00,13,3,22,0.00
2013-1-9,46.0,35.7,29.5,40.8,34.0,29.4,100,94,80,30.25,30.06,7,0,7,0.01
2013-1-10,45.5,41.1,31.6,43.9,38.2,30.4,100,90,79,30.06,29.92,16,4,16,0.07
2013-1-11,46.2,39.0,30.3,45.1,37.5,29.4,100,94,85,30.05,29.80,6,2,10,0.02
2013-1-12,46.2,43.9,40.3,44.9,39.9,32.8,100,86,73,30.07,29.77,11,5,17,0.02
2013-1-13,41.7,37.4,30.6,38.8,34.6,29.0,95,90,75,30.17,30.07,10,2,15,0.03
2013-1-14,43.9,41.0,36.5,40.7,37.4,33.8,91,87,78,30.09,29.87,19,7,24,0.04
2013-1-15,44.1,37.8,31.5,37.3,34.3,30.1,97,87,76,29.93,29.75,19,4,21,0.00
2013-1-16,42.4,40.8,39.7,41.2,37.8,34.9,96,89,81,29.88,29.73,14,4,22,0.20
2013-1-17,45.3,43.5,41.7,44.5,42.5,39.6,100,96,92,29.88,29.55,25,7,36,0.38
2013-1-18,41.7,38.1,36.3,39.6,36.7,35.0,96,95,91,29.55,29.26,34,11,42,2.24
2013-1-19,39.2,37.0,34.9,38.0,34.0,29.9,96,89,74,29.60,29.31,13,5,17,0.17
2013-1-20,38.1,37.5,36.1,32.8,30.8,27.6,85,77,67,29.58,29.38,12,6,20,0.01
2013-1-21,38.7,35.7,31.5,35.8,33.3,30.5,97,91,76,29.38,29.33,8,2,14,0.24
2013-1-22,36.9,31.6,26.8,35.4,30.7,25.8,100,96,94,29.75,29.37,6,2,6,0.02
2013-1-23,39.4,37.0,29.7,35.6,33.5,29.7,100,87,77,29.85,29.72,16,6,16,0.00
2013-1-24,42.1,39.0,36.3,39.6,35.9,33.6,92,89,85,30.01,29.85,13,3,15,0.01
2013-1-25,46.9,44.3,41.5,45.9,42.2,38.1,97,93,85,29.93,29.35,21,7,32,0.73
2013-1-26,54.9,45.9,37.0,51.1,41.9,33.7,93,86,74,29.73,28.98,18,6,24,0.03
2013-1-27,54.9,42.5,38.7,51.1,37.0,33.4,89,81,69,29.43,28.98,27,12,41,0.13
2013-1-28,51.6,45.2,38.1,45.8,39.1,33.1,92,79,70,29.55,29.10,28,12,42,0.24
2013-1-29,59.2,49.8,45.3,53.1,44.3,40.0,99,82,75,29.45,29.11,31,10,41,0.05
2013-1-30,49.3,46.2,43.9,42.5,39.0,32.7,85,76,61,29.82,29.34,28,12,41,0.13
2013-1-31,48.7,45.7,41.7,43.9,38.6,35.7,88,76,67,29.71,29.53,22,14,33,0.13
2013-2-18,46.3,42.9,37.6,39.0,37.1,33.3,94,80,69,30.11,29.98,24,13,24,0.00
2013-2-19,46.7,38.7,29.5,40.1,35.4,28.2,100,88,76,30.12,30.05,12,4,12,0.00
2013-2-20,44.5,39.2,27.6,39.8,35.5,26.7,100,87,78,30.17,30.08,25,12,25,0.01
2013-2-21,39.7,37.4,36.1,33.7,30.0,27.5,80,75,69,30.21,30.16,26,18,26,0.00
2013-2-22,37.2,36.0,34.2,28.6,26.8,24.9,72,69,65,30.27,30.18,17,11,17,0.00
2013-2-23,37.3,35.5,33.1,33.5,29.6,25.3,95,80,64,30.35,30.26,13,6,13,0.06
2013-2-24,42.6,37.5,35.2,34.6,31.1,26.2,91,78,65,30.47,30.34,12,5,12,5.31
2013-2-25,46.6,38.2,31.5,37.4,33.5,29.9,96,84,66,30.57,30.45,7,2,11,0.00
2013-2-26,43.3,41.2,36.5,39.0,37.4,34.7,94,87,78,30.65,30.53,7,2,11,0.00
2013-2-27,45.0,41.7,39.9,39.2,37.5,36.2,90,85,78,30.67,30.61,7,2,10,0.00
2013-2-28,44.8,41.3,38.5,42.1,38.6,36.2,97,90,84,30.61,30.49,7,2,10,0.00
2013-3-1,48.4,42.9,36.3,42.4,38.8,32.4,97,86,67,30.52,30.48,7,1,14,0.00
2013-3-2,48.7,41.3,31.5,37.6,35.2,29.9,96,80,64,30.48,30.29,9,1,11,0.00
2013-3-3,46.8,42.2,37.6,39.6,36.9,34.6,89,82,64,30.29,30.05,9,2,12,0.00
2013-3-4,43.2,39.5,29.7,36.8,34.4,28.1,95,82,71,30.05,29.73,10,3,13,0.00
2013-3-5,48.9,39.1,28.2,41.8,36.1,27.2,100,89,73,29.73,29.56,7,1,8,0.00
2013-3-6,47.7,43.5,40.0,45.5,42.1,38.7,100,95,92,29.56,29.45,5,1,5,0.14
2013-3-7,46.0,45.3,44.2,45.9,45.1,44.2,100,99,96,29.45,29.29,8,2,14,0.72
2013-3-8,47.5,46.2,45.0,47.5,46.0,45.0,100,99,97,29.50,29.28,12,3,17,0.30
2013-3-9,45.7,43.7,40.5,45.4,43.2,39.0,100,98,94,29.70,29.49,11,4,16,0.28
2013-3-10,40.5,38.7,34.7,39.0,32.0,20.2,95,78,54,29.94,29.70,21,10,33,0.02
2013-3-11,35.8,33.6,31.1,27.9,23.5,19.9,86,67,55,30.07,29.94,21,10,31,0.00
2013-3-12,43.0,37.1,33.3,32.2,27.3,20.4,86,68,55,30.09,29.98,16,6,26,0.00
2013-3-13,47.3,38.7,33.6,37.4,33.5,30.2,91,82,61,30.07,29.96,12,5,18,0.02
2013-3-14,49.5,41.0,32.4,41.8,35.4,28.8,88,81,68,30.08,29.73,12,4,19,0.02
2013-3-15,51.3,44.2,34.9,40.8,37.4,31.7,89,77,56,29.73,29.34,13,4,21,0.02
2013-3-16,48.0,39.3,31.6,39.7,34.7,29.6,95,84,68,29.34,29.26,13,2,14,0.02
2013-3-17,44.8,38.6,36.1,39.9,35.6,33.0,94,89,83,29.30,29.11,9,3,17,0.11
2013-3-18,44.8,39.5,36.3,39.5,37.0,34.1,96,91,77,29.44,29.16,12,4,19,0.22
2013-3-19,39.6,36.5,32.7,37.4,34.6,31.4,97,93,83,29.52,29.43,8,2,13,0.32
2013-3-20,45.0,39.0,35.2,40.5,36.8,33.9,97,92,80,29.88,29.52,10,2,18,0.14
2013-3-21,43.3,41.1,39.6,39.0,37.2,35.4,94,86,78,29.89,29.61,25,11,33,0.64
2013-3-22,41.5,40.8,38.5,40.0,39.0,37.2,95,93,88,29.70,29.52,21,9,34,2.63
2013-3-23,39.7,38.5,37.0,37.4,35.5,32.7,96,89,82,29.92,29.70,14,6,21,0.09
2013-3-24,37.0,36.2,35.2,32.8,30.3,28.3,85,79,73,30.07,29.92,18,10,26,0.00
2013-3-25,39.6,37.2,35.4,29.4,27.6,26.0,74,68,63,30.10,30.05,19,10,27,0.00
2013-3-26,39.4,36.6,34.0,31.6,27.7,23.9,84,70,62,30.10,30.01,16,8,23,0.00
2013-3-27,39.0,35.3,32.5,33.5,30.4,23.9,93,82,63,30.02,29.98,17,5,22,0.05
2013-3-28,42.3,37.5,33.3,30.8,28.2,24.7,90,69,56,30.00,29.92,13,6,18,0.07
2013-3-29,41.2,37.9,35.1,28.3,25.9,24.5,67,62,56,29.92,29.83,9,6,20,0.00
2013-3-30,43.6,39.9,35.8,28.8,26.0,23.2,67,58,48,29.96,29.86,8,5,17,0.00
2013-3-31,43.5,40.4,38.7,32.8,29.7,24.5,75,65,55,29.94,29.83,10,8,25,0.00
2013-4-1,40.5,38.6,37.0,30.8,28.4,26.7,72,66,63,29.94,29.82,10,8,25,0.00
2013-4-2,46.4,40.3,34.9,34.9,29.3,25.4,72,65,54,30.15,29.94,8,6,17,0.00
2013-4-3,46.9,42.0,36.5,35.1,32.6,28.8,79,69,57,30.21,30.15,9,6,18,0.00
2013-4-4,47.1,42.3,37.6,34.4,31.6,28.1,77,66,55,30.20,30.17,10,6,22,0.00
2013-4-5,46.8,41.7,31.5,37.3,32.8,27.8,86,71,55,30.28,30.16,9,5,18,0.00
2013-4-6,47.7,38.5,27.9,35.6,31.1,25.3,93,76,58,30.33,30.22,7,2,14,0.00
2013-4-7,46.2,39.6,29.5,38.8,34.1,26.4,93,81,64,30.22,29.80,8,3,19,0.00
2013-4-8,47.5,43.5,40.5,39.3,36.6,33.2,88,77,67,29.80,29.49,12,8,24,0.00
2013-4-9,47.5,41.6,38.1,39.2,36.3,33.7,89,81,71,29.61,29.47,11,6,23,0.00
2013-4-10,48.0,43.1,38.1,44.4,40.7,36.0,94,91,82,29.62,29.46,6,2,13,0.02
2013-4-11,47.1,43.8,39.0,46.3,42.3,38.2,97,94,90,29.46,29.26,6,2,16,0.62
2013-4-12,55.0,46.2,39.6,44.8,42.1,38.8,100,87,63,29.68,29.27,8,3,18,0.04
2013-4-13,54.0,44.6,33.3,52.5,43.4,32.5,100,95,84,29.69,29.41,10,4,23,0.25
2013-4-14,59.4,54.5,50.2,52.2,48.9,45.3,94,82,70,29.56,29.40,13,9,31,0.18
2013-4-15,62.8,54.2,48.7,48.5,45.2,41.4,93,73,46,29.80,29.50,15,9,31,0.13
2013-4-16,60.4,53.0,46.2,46.3,39.4,33.1,87,61,38,29.92,29.49,13,8,30,0.01
2013-4-17,57.9,51.9,45.9,53.1,47.0,37.7,100,84,72,29.89,29.23,19,10,40,0.13
2013-4-18,55.9,48.7,44.4,44.8,42.2,40.2,88,79,60,30.08,29.26,19,12,41,0.26
2013-4-19,54.7,47.4,40.6,42.6,39.9,37.8,91,76,54,30.46,30.08,11,5,24,0.00
2013-4-20,58.5,48.4,34.5,46.0,40.0,32.9,95,74,46,30.46,30.22,7,3,17,0.00
2013-4-21,59.4,49.8,44.2,46.2,41.2,38.8,87,73,52,30.22,29.94,13,5,25,0.05
2013-4-22,60.3,52.2,44.6,51.8,45.2,39.3,86,77,62,29.97,29.81,12,6,26,0.00
2013-4-23,65.5,55.7,48.0,50.9,46.9,42.1,88,73,55,30.12,29.95,10,5,23,0.00
2013-4-24,62.1,53.8,45.9,53.1,49.2,43.7,94,85,68,30.25,30.02,9,4,22,0.09
2013-4-25,57.7,49.1,44.1,46.7,43.1,37.7,97,81,51,30.23,30.10,9,3,19,0.12
2013-4-26,53.1,46.0,39.4,40.0,35.6,30.4,85,68,48,30.16,30.02,12,8,29,0.00
2013-4-27,53.1,46.3,40.1,39.9,37.3,34.4,82,71,57,30.19,30.07,9,5,22,0.00
2013-4-28,55.8,48.7,42.4,48.3,40.6,35.7,89,74,59,30.11,29.84,10,6,23,0.03
2013-4-29,57.9,48.7,41.5,43.8,37.4,32.0,81,66,44,30.25,29.90,12,9,27,0.00
2013-4-30,54.9,47.7,39.2,42.3,37.9,34.5,86,70,54,30.35,30.25,6,3,13,0.00
2013-5-1,61.3,51.1,41.9,47.5,41.9,35.6,90,71,48,30.30,30.24,7,3,16,0.00
2013-5-2,63.9,51.4,36.7,47.5,41.9,34.8,95,72,43,30.30,30.13,6,2,14,0.00
2013-5-3,61.0,55.8,50.5,48.3,45.7,43.5,83,69,57,30.13,29.85,11,6,24,0.00
2013-5-4,63.1,54.3,46.8,49.9,43.0,39.5,84,67,47,30.00,29.81,10,6,26,0.00
2013-5-5,68.4,58.8,51.6,51.0,48.7,44.8,84,70,48,30.08,30.00,8,4,18,0.00
2013-5-6,64.9,56.7,48.7,50.9,48.0,46.0,91,73,53,30.08,29.99,7,2,18,0.00
2013-5-7,59.2,53.9,47.8,50.0,47.5,44.8,92,79,70,30.02,29.67,5,2,15,0.01
2013-5-8,63.0,53.6,46.6,54.5,47.4,38.7,97,81,58,29.67,29.29,11,6,27,0.60
2013-5-9,58.8,49.8,45.3,49.5,43.9,38.6,91,80,65,29.55,29.20,14,9,33,0.12
2013-5-10,61.9,52.8,46.0,50.3,43.2,35.8,94,71,42,29.73,29.55,12,7,30,0.02
2013-5-11,54.5,48.8,44.4,46.2,42.1,38.2,91,78,61,29.96,29.67,12,8,31,0.20
2013-5-12,61.9,51.6,44.2,50.9,44.7,37.6,89,78,64,29.97,29.79,12,6,25,0.02
2013-5-13,54.7,47.5,43.5,43.2,38.7,36.0,85,72,54,29.85,29.71,14,9,32,0.09
2013-5-14,55.6,47.6,42.1,43.3,39.5,36.6,93,75,50,29.73,29.36,10,5,23,0.27
2013-5-15,55.2,47.4,42.1,42.7,39.8,35.2,93,76,53,29.53,29.40,12,7,25,0.01
2013-5-16,51.6,44.4,35.1,44.9,39.5,31.9,94,83,66,29.63,29.47,6,2,14,0.66
2013-5-17,57.2,48.1,35.6,48.5,42.0,34.6,97,81,58,29.91,29.63,8,3,15,0.00
2013-5-18,56.8,50.9,45.9,47.3,44.3,38.3,88,78,65,29.90,29.72,8,5,16,0.00
2013-5-19,59.7,53.9,48.2,50.2,46.9,44.1,94,78,60,30.03,29.78,6,1,14,0.00
2013-5-20,62.4,56.4,52.2,54.4,50.8,47.2,86,82,74,30.11,30.00,9,5,20,0.00
2013-5-21,67.1,55.1,48.4,51.4,47.0,44.1,87,75,53,30.18,30.10,11,6,26,0.00
2013-5-22,61.0,53.0,48.0,49.2,41.8,36.6,90,67,47,30.24,30.17,9,7,25,0.00
2013-5-23,54.0,47.6,42.1,42.6,37.2,33.2,83,68,48,30.18,30.06,12,8,30,0.02
2013-5-24,58.5,50.2,43.2,41.7,38.7,34.9,80,65,50,30.21,30.01,11,7,22,0.00
2013-5-25,57.9,50.6,38.5,46.0,42.7,36.1,92,75,58,30.22,30.15,7,2,17,0.00
2013-5-26,66.4,56.5,48.0,50.2,47.4,43.1,89,73,48,30.16,29.79,9,4,19,0.00
2013-5-27,57.6,51.6,45.7,49.9,46.8,42.6,94,84,65,29.78,29.43,8,4,21,0.31
2013-5-28,56.8,51.0,41.4,48.3,44.9,38.8,94,80,70,29.66,29.50,6,3,14,0.08
2013-5-29,67.8,57.6,48.7,53.1,48.8,44.7,96,74,56,29.98,29.65,8,6,18,0.29
2013-5-30,70.5,60.4,51.8,49.9,46.7,42.6,84,62,45,30.13,29.97,10,7,22,0.00
2013-5-31,62.6,56.3,48.0,54.2,47.7,39.4,85,73,60,30.28,30.12,7,4,16,0.00
2013-6-1,61.7,54.0,45.9,52.5,45.3,39.2,87,73,60,30.39,30.28,8,4,18,0.01
2013-6-2,60.6,55.7,50.4,51.1,47.3,43.4,83,74,63,30.46,30.38,5,2,14,0.00
2013-6-3,65.5,59.0,49.3,55.4,51.2,45.4,92,76,55,30.50,30.45,5,2,10,0.00
2013-6-4,65.1,56.4,45.3,52.8,47.5,42.8,94,74,49,30.46,30.27,4,1,8,0.00
2013-6-5,64.6,56.9,45.5,52.8,48.5,43.1,94,74,58,30.26,30.12,5,2,13,0.00
2013-6-6,63.7,56.0,44.2,53.6,49.3,42.3,95,79,64,30.25,30.14,5,2,11,0.00
2013-6-7,68.9,59.9,47.3,55.4,50.0,45.7,96,72,51,30.28,30.24,4,2,11,0.00
2013-6-8,69.4,60.4,47.7,55.5,51.0,44.6,92,72,55,30.27,30.10,5,2,10,0.00
2013-6-9,68.2,57.4,44.8,53.1,47.8,42.0,93,72,51,30.10,29.95,6,2,13,0.00
2013-6-10,65.3,57.5,47.1,53.3,48.3,42.7,90,72,55,29.95,29.82,10,5,25,0.00
2013-6-11,66.4,56.5,51.3,60.7,54.0,49.7,97,92,79,29.82,29.64,9,5,20,0.21
2013-6-12,64.9,56.8,53.4,54.5,52.9,51.2,97,88,65,29.70,29.53,6,3,14,0.02
2013-6-13,64.6,56.3,49.8,54.8,50.6,44.8,97,82,53,29.90,29.53,10,4,21,0.20
2013-6-14,63.7,54.5,49.8,56.3,49.7,44.9,96,84,66,29.90,29.40,12,5,29,0.35
2013-6-15,66.9,56.7,47.7,53.1,47.0,42.1,87,71,48,29.72,29.49,10,7,23,0.00
2013-6-16,62.1,55.5,51.6,52.7,50.2,47.6,96,83,66,29.94,29.72,10,4,21,0.18
2013-6-17,64.6,56.4,51.3,56.8,52.7,49.0,97,88,72,30.03,29.94,5,2,10,0.15
2013-6-18,70.5,59.9,48.7,56.7,52.5,47.4,97,78,59,30.01,29.95,5,2,13,0.00
2013-6-19,70.5,60.0,52.7,53.7,49.9,48.3,87,70,47,30.06,30.00,6,3,15,0.00
2013-6-20,65.7,58.0,49.3,54.0,51.0,46.8,92,79,57,30.02,29.79,5,2,11,0.00
2013-6-21,69.4,60.1,54.5,56.9,54.4,48.7,94,82,58,29.85,29.59,7,4,17,0.06
2013-6-22,66.2,58.9,52.9,55.5,51.4,49.2,91,77,62,29.59,29.42,11,7,25,0.15
2013-6-23,60.4,55.9,52.3,52.3,49.5,44.0,89,79,64,30.15,29.58,13,10,32,0.02
2013-6-24,65.8,56.2,49.8,52.4,47.3,44.9,92,73,49,30.29,30.15,8,4,21,0.00
2013-6-25,63.9,58.1,48.2,56.5,52.3,46.0,93,81,67,30.42,30.29,3,1,10,0.00
2013-6-26,64.4,60.1,54.0,54.0,50.4,47.0,87,71,56,30.50,30.42,5,3,12,0.00
2013-6-27,67.8,59.4,52.2,61.9,54.7,47.1,94,85,69,30.48,30.24,8,4,20,0.13
2013-6-28,69.3,62.7,55.6,60.1,56.9,50.5,92,82,70,30.24,30.09,10,7,25,0.00
2013-6-29,74.8,62.1,53.1,62.4,54.0,47.2,86,75,58,30.24,30.19,10,4,22,0.00
2013-6-30,70.5,61.8,54.7,59.3,52.1,45.5,81,71,56,30.23,29.99,10,6,22,0.01
2013-7-1,65.8,58.9,52.5,52.5,47.7,45.8,82,67,53,30.02,29.92,8,4,17,0.00
2013-7-2,65.1,57.8,54.0,59.3,53.0,46.0,94,84,68,29.92,29.46,7,3,19,0.23
2013-7-3,72.3,61.0,53.6,59.6,54.5,51.4,93,80,57,29.85,29.51,8,4,19,0.01
2013-7-4,70.2,63.7,55.0,58.3,53.3,47.2,92,70,52,30.26,29.81,11,6,23,0.00
2013-7-5,70.3,60.5,49.6,57.7,50.7,45.3,85,71,56,30.39,30.26,6,2,14,0.00
2013-7-6,68.0,58.7,45.1,58.3,51.6,42.0,92,78,68,30.45,30.33,6,2,13,0.00
2013-7-7,70.9,64.9,57.4,62.6,59.6,54.3,94,83,72,30.58,30.45,5,2,10,0.00
2013-7-8,77.5,65.6,54.7,61.3,56.7,52.3,94,75,46,30.58,30.49,3,1,9,0.00
2013-7-9,78.1,69.0,55.6,61.4,56.5,52.0,96,67,43,30.49,30.35,3,1,8,0.00
2013-7-10,73.0,65.8,57.0,62.0,58.9,54.8,95,79,67,30.36,30.30,5,2,12,0.00
2013-7-11,70.9,63.6,54.1,61.4,56.9,52.6,97,80,63,30.32,30.28,4,1,9,0.00
2013-7-12,75.4,65.5,51.1,59.5,56.0,49.4,95,73,43,30.29,30.24,4,1,9,0.00
2013-7-13,74.1,65.9,57.0,62.6,59.3,53.7,91,80,65,30.34,30.24,7,2,16,0.00
2013-7-14,71.8,62.3,55.2,61.1,56.4,52.6,93,82,68,30.34,30.22,5,2,12,0.00
2013-7-15,71.2,62.6,55.6,58.5,56.2,52.7,95,80,60,30.27,30.22,6,2,13,0.00
2013-7-16,74.8,64.8,53.8,58.6,56.4,51.5,94,75,54,30.26,30.23,5,2,13,0.00
2013-7-17,74.8,67.0,58.8,60.1,57.7,53.7,86,73,54,30.33,30.25,3,1,8,0.00
2013-7-18,76.5,67.6,54.3,59.6,56.1,51.6,92,69,47,30.37,30.33,5,1,9,0.00
2013-7-19,78.1,68.7,59.7,64.5,61.6,57.0,96,79,57,30.35,30.25,5,1,11,0.00
2013-7-20,72.3,66.1,58.3,62.4,60.2,56.3,95,82,70,30.25,30.17,6,2,14,0.00
2013-7-21,69.1,62.8,56.1,58.9,57.3,54.4,96,83,68,30.17,30.03,5,2,11,0.00
2013-7-22,69.1,64.1,57.9,63.1,59.5,54.1,94,86,75,30.03,29.90,7,2,15,0.00
2013-7-23,76.8,66.4,60.1,63.2,61.0,58.6,96,84,55,29.91,29.80,7,3,16,0.00
2013-7-24,73.2,64.9,60.4,62.7,60.3,57.8,95,85,67,29.84,29.78,8,3,19,0.15
2013-7-25,70.5,63.7,58.6,65.4,61.0,57.2,100,91,77,29.82,29.75,5,1,11,0.22
2013-7-26,70.7,63.3,54.1,61.8,58.3,52.8,97,84,70,29.85,29.80,7,2,16,0.01
2013-7-27,69.4,61.1,52.0,61.2,57.0,50.6,97,87,74,29.82,29.62,6,2,14,0.00
2013-7-28,72.3,60.8,51.1,62.3,57.1,50.0,100,88,60,29.62,29.54,7,2,18,0.35
2013-7-29,75.4,64.4,57.0,61.4,57.2,52.0,96,78,52,29.83,29.58,10,2,20,0.04
2013-7-30,75.4,65.4,55.6,58.5,52.4,49.9,82,64,45,29.88,29.77,9,4,18,0.00
2013-7-31,71.4,61.5,57.6,67.3,57.6,52.0,97,87,75,29.88,29.67,6,3,16,0.14
2013-8-1,67.8,64.7,63.0,63.5,62.3,61.2,97,92,86,29.71,29.53,10,5,22,0.01
2013-8-2,73.6,66.2,59.2,62.7,56.3,49.8,96,72,50,29.65,29.50,10,5,23,0.01
2013-8-3,74.5,63.3,57.0,56.0,52.5,50.6,87,69,46,29.91,29.65,9,6,21,0.03
2013-8-4,68.2,60.9,52.7,61.1,56.7,50.3,97,86,70,29.91,29.83,7,2,16,0.11
2013-8-5,71.2,62.2,56.1,58.7,54.6,46.9,97,78,49,29.96,29.77,9,4,19,0.03
2013-8-6,68.4,61.3,53.6,56.6,53.4,49.2,88,76,55,29.98,29.91,7,2,16,0.00
2013-8-7,70.7,60.7,50.2,58.0,53.6,48.2,94,78,57,30.06,29.92,5,1,10,0.00
2013-8-8,75.6,64.6,55.9,59.3,54.9,50.6,87,72,46,30.05,29.90,9,3,18,0.00
2013-8-9,65.8,61.8,57.6,54.6,52.1,49.5,86,71,56,30.20,29.92,10,5,24,0.00
2013-8-10,74.7,63.8,56.3,57.2,52.3,49.3,80,67,47,30.21,30.05,9,4,18,0.02
2013-8-11,70.7,61.3,54.0,53.1,50.6,47.2,87,69,44,30.07,30.00,9,6,20,0.00
2013-8-12,68.4,60.6,54.3,55.6,49.3,44.1,82,67,47,30.14,29.99,10,7,22,0.02
2013-8-13,70.0,60.9,55.2,59.1,54.5,46.9,92,80,63,30.18,30.12,7,3,16,0.02
2013-8-14,75.4,64.6,54.1,63.3,59.2,52.0,94,83,62,30.16,29.96,7,2,13,0.02
2013-8-15,71.8,66.3,63.0,63.8,61.3,56.9,95,84,70,29.97,29.77,5,2,17,0.32
2013-8-16,73.8,64.1,54.3,60.4,55.2,51.6,93,74,52,29.93,29.83,8,4,18,0.02
2013-8-17,74.8,64.6,57.7,65.6,57.8,51.6,91,79,65,29.88,29.48,11,6,25,0.07
2013-8-18,68.0,60.5,55.8,54.3,50.6,47.6,88,71,51,29.91,29.62,9,5,19,0.01
2013-8-19,72.9,61.7,52.5,55.2,51.6,47.8,85,70,49,30.26,29.91,8,4,17,0.00
2013-8-20,71.4,64.4,56.7,56.0,53.8,51.8,87,70,51,30.28,30.14,6,3,16,0.00
2013-8-21,72.9,66.2,61.5,59.3,57.9,55.8,86,75,62,30.13,30.07,8,4,18,0.00
2013-8-22,65.7,60.4,57.4,59.3,57.0,55.3,94,89,78,30.10,29.94,6,2,15,0.00
2013-8-23,63.3,60.3,56.3,60.5,57.6,53.9,96,91,80,29.95,29.86,8,2,16,0.17
2013-8-24,64.9,58.3,51.1,55.2,51.9,47.8,95,80,55,30.02,29.93,7,3,15,0.02
2013-8-25,72.3,62.1,56.8,59.6,57.0,54.3,97,84,63,30.17,29.94,5,2,11,0.02
2013-8-26,70.3,61.2,54.3,58.4,55.4,51.4,94,82,65,30.18,30.12,4,2,11,0.00
2013-8-27,72.3,61.6,53.4,61.6,57.5,51.2,95,87,68,30.24,30.11,6,2,13,0.02
2013-8-28,67.5,59.8,53.6,57.7,53.8,50.0,90,81,70,30.26,30.14,5,1,14,0.00
2013-8-29,77.5,66.3,58.8,61.1,57.5,54.7,89,74,53,30.15,30.07,7,3,20,0.00
2013-8-30,74.3,62.8,52.0,61.9,55.2,46.0,95,77,59,30.23,29.97,13,4,26,0.00
2013-8-31,66.9,57.3,49.1,49.4,45.6,40.3,80,66,48,30.45,30.23,8,5,19,0.00
2013-9-1,68.4,59.0,52.9,52.6,49.4,46.4,80,71,57,30.45,30.34,8,5,21,0.00
2013-9-2,75.4,66.0,57.0,61.9,58.0,49.3,89,76,62,30.35,30.27,10,5,24,0.00
2013-9-3,77.7,64.1,52.9,60.3,56.3,49.2,94,77,40,30.34,30.19,7,2,15,0.00
2013-9-4,73.6,60.1,45.7,60.8,51.8,44.3,97,76,50,30.19,29.92,8,2,17,0.00
2013-9-5,67.1,58.2,51.3,55.4,49.0,41.4,92,73,42,29.97,29.89,8,3,19,0.08
2013-9-6,63.9,53.7,46.0,49.3,46.7,44.0,93,79,50,29.92,29.85,8,4,18,0.09
2013-9-7,53.8,50.0,47.5,48.7,46.3,44.1,94,87,73,29.88,29.83,10,6,22,0.17
2013-9-8,60.4,53.2,43.7,50.4,47.1,41.0,92,81,62,29.98,29.88,7,3,17,0.02
2013-9-9,65.3,54.0,41.7,51.1,47.2,40.3,100,79,58,30.23,29.97,7,3,18,0.00
2013-9-10,66.0,57.3,49.8,51.4,49.5,47.6,92,76,56,30.33,30.23,9,6,20,0.00
2013-9-11,67.3,59.9,53.8,62.4,56.1,49.3,93,87,77,30.33,30.11,11,6,24,0.04
2013-9-12,67.5,62.1,55.8,63.6,59.3,53.4,96,91,81,30.13,29.99,7,3,15,0.09
2013-9-13,58.5,54.2,50.5,52.9,48.4,45.4,95,81,64,30.14,30.07,5,2,12,0.02
2013-9-14,62.8,53.6,47.5,48.8,45.3,43.0,90,74,54,30.14,30.03,5,2,14,0.00
2013-9-15,66.0,57.1,48.7,60.0,47.7,36.8,87,72,43,30.03,29.47,16,9,34,0.02
2013-9-16,57.9,51.2,46.8,46.9,41.8,39.8,82,71,55,29.64,29.55,15,11,32,0.02
2013-9-17,54.0,51.2,49.6,52.3,47.0,40.9,97,86,68,29.64,29.37,11,3,26,0.57
2013-9-18,59.4,52.3,47.8,49.4,46.4,42.4,97,81,61,29.88,29.49,10,5,23,0.01
2013-9-19,65.5,56.9,49.3,56.4,48.7,43.6,94,75,58,29.92,29.58,12,7,27,0.06
2013-9-20,65.7,55.9,49.6,48.8,46.5,43.6,89,71,53,30.07,29.92,8,2,19,0.00
2013-9-21,76.5,64.4,52.5,63.4,58.1,48.1,96,81,60,30.22,30.03,6,2,14,0.00
2013-9-22,73.6,64.6,55.9,60.2,57.8,53.6,93,79,61,30.32,30.22,6,3,14,0.00
2013-9-23,69.1,62.0,58.3,61.8,58.9,56.9,96,90,76,30.27,30.07,7,3,15,0.00
2013-9-24,64.0,58.7,56.5,59.6,57.2,55.9,100,95,84,30.07,29.91,5,2,13,0.06
2013-9-25,60.3,57.7,56.3,60.3,57.5,56.3,100,99,96,29.92,29.86,3,0,7,0.07
2013-9-26,58.3,57.5,56.5,58.3,57.2,56.2,100,99,96,29.98,29.90,5,2,13,0.15
2013-9-27,63.9,58.7,52.5,60.0,56.7,51.4,100,93,79,29.98,29.85,4,2,14,0.01
2013-9-28,66.6,57.4,48.6,58.3,54.3,48.1,100,90,69,29.85,29.73,3,1,8,0.00
2013-9-29,62.4,57.4,50.2,56.5,53.7,48.8,97,88,75,29.75,29.71,5,2,12,0.00
2013-9-30,59.5,57.4,51.6,57.7,55.2,49.9,100,92,87,29.71,29.65,6,3,15,0.02
2013-10-1,58.8,57.8,55.9,57.6,56.4,55.0,97,95,92,29.67,29.63,7,4,17,0.67
2013-10-2,61.5,59.9,58.1,61.5,59.6,57.3,100,99,96,29.63,29.59,8,6,19,0.64
2013-10-3,63.0,60.4,58.5,61.5,60.0,58.2,100,99,92,29.63,29.50,7,4,16,0.70
2013-10-4,66.0,59.3,54.3,58.9,56.7,52.3,100,92,74,29.93,29.53,7,3,19,0.02
2013-10-5,69.4,58.8,48.7,56.5,52.0,46.8,96,79,58,30.16,29.93,7,3,14,0.00
2013-10-6,70.3,62.8,54.9,62.3,57.1,47.1,92,82,66,30.16,30.11,8,3,19,0.00
2013-10-7,67.6,64.1,60.3,59.8,58.3,56.0,95,82,72,30.14,30.05,11,4,24,0.00
2013-10-8,64.8,59.9,55.2,57.3,53.7,51.1,87,80,64,30.29,30.09,7,4,18,0.00
2013-10-9,56.7,51.6,43.9,50.9,44.2,36.8,86,76,57,30.29,30.17,10,6,24,0.00
2013-10-10,56.1,47.8,40.8,43.5,39.9,37.0,88,75,56,30.39,30.25,8,4,17,0.00
2013-10-11,58.8,52.7,47.1,50.7,45.9,39.3,86,78,66,30.40,30.36,9,6,19,0.00
2013-10-12,55.0,53.6,50.9,52.3,49.3,46.7,91,85,80,30.36,30.16,7,4,18,0.00
2013-10-13,55.0,52.5,50.5,52.2,48.6,45.3,94,87,74,30.17,29.95,5,3,13,0.01
2013-10-14,54.9,51.7,47.1,49.9,47.5,44.3,95,86,75,29.96,29.87,7,4,20,0.03
2013-10-15,58.6,50.9,40.6,52.3,47.4,39.6,100,88,73,29.89,29.84,5,1,15,0.00
2013-10-16,57.9,53.8,51.1,54.5,50.9,48.7,97,90,83,29.86,29.52,11,6,25,1.13
2013-10-17,64.0,55.4,47.8,54.8,51.4,46.2,96,87,67,29.88,29.73,6,2,14,0.00
2013-10-18,57.7,56.0,53.2,57.7,55.2,51.6,100,97,93,29.88,29.46,12,6,27,0.84
2013-10-19,61.7,57.1,52.0,58.4,55.2,50.5,100,94,84,29.46,29.41,8,4,19,0.16
2013-10-20,62.2,55.6,49.5,55.2,51.8,48.4,100,88,70,29.54,29.28,8,4,18,0.08
2013-10-21,61.9,55.6,48.0,60.6,54.2,46.6,100,95,87,29.54,29.21,8,3,18,0.56
2013-10-22,63.1,58.3,55.6,59.5,55.9,54.2,96,92,80,29.22,29.03,6,3,15,0.17
2013-10-23,56.7,51.8,43.3,55.0,46.1,39.7,96,81,58,29.76,29.03,13,5,30,0.02
2013-10-24,58.3,51.1,41.2,55.1,48.9,38.8,100,92,86,29.84,29.62,8,2,16,0.26
2013-10-25,59.5,56.7,55.2,56.8,54.7,52.6,100,93,87,29.61,29.34,10,4,23,0.57
2013-10-26,57.6,52.3,48.0,53.4,48.6,45.1,93,87,77,29.52,29.21,9,4,22,0.19
2013-10-27,57.6,53.1,49.5,50.6,47.1,43.5,92,80,71,29.21,29.03,17,9,35,0.10
2013-10-28,54.5,50.4,46.6,46.7,44.4,42.6,87,80,66,29.57,28.99,13,8,32,0.01
2013-10-29,53.8,47.3,41.5,45.8,41.1,38.0,88,79,68,30.02,29.57,10,6,25,0.01
2013-10-30,57.0,49.6,39.6,55.0,45.9,36.9,95,87,81,30.02,29.73,11,4,27,0.04
2013-10-31,58.8,51.2,47.3,48.1,44.8,42.6,87,79,65,29.95,29.77,9,4,22,0.02
2013-11-1,54.0,46.1,34.9,45.3,41.2,33.9,96,83,69,29.79,29.58,5,2,12,0.00
2013-11-2,51.4,44.6,33.1,47.2,40.9,32.1,100,87,73,29.58,28.95,20,10,41,0.29
2013-11-3,51.6,45.7,40.6,41.9,39.8,37.0,93,80,65,29.50,29.26,13,6,31,0.03
2013-11-4,50.2,43.5,37.8,41.8,38.6,35.4,92,83,72,29.44,29.27,8,4,19,0.01
2013-11-5,52.7,48.4,44.4,46.6,43.0,38.9,93,82,73,29.43,29.16,14,8,30,0.06
2013-11-6,50.2,46.8,42.4,47.8,43.4,39.3,95,88,81,29.55,29.35,6,2,15,0.06
2013-11-7,52.3,46.3,39.9,42.2,40.0,35.8,89,79,65,29.62,29.55,13,5,24,0.00
2013-11-8,50.9,44.9,38.7,42.2,38.8,35.0,87,79,68,29.66,29.57,7,4,17,0.00
2013-11-9,49.1,43.3,37.9,41.0,38.2,34.4,91,83,71,29.70,29.58,7,3,18,0.00
2013-11-10,51.6,45.3,37.9,50.5,40.2,35.1,96,83,65,30.10,29.71,8,4,20,0.21
2013-11-11,60.4,55.4,51.6,56.3,51.6,45.5,100,87,78,30.17,29.87,7,3,15,0.00
2013-11-12,52.3,47.6,38.5,46.1,41.7,35.2,91,80,67,30.53,30.17,8,4,19,0.00
2013-11-13,52.5,47.1,38.8,46.5,41.4,36.3,92,81,64,30.53,30.07,14,6,31,0.02
2013-11-14,49.8,46.5,43.2,42.2,40.6,39.1,89,80,72,30.58,30.14,12,8,27,0.02
2013-11-15,52.7,49.0,46.4,45.8,43.3,40.2,85,80,76,30.59,30.50,7,3,17,0.00
2013-11-16,55.0,50.8,47.5,49.6,45.9,43.0,94,83,77,30.50,30.38,7,2,14,0.00
2013-11-17,54.9,51.8,50.2,53.0,50.3,48.8,97,94,89,30.38,29.94,6,1,14,0.23
2013-11-18,51.3,43.7,37.4,49.5,41.0,33.9,97,90,77,29.94,29.88,10,5,21,0.09
2013-11-19,44.8,38.8,34.3,39.6,33.9,31.2,90,82,74,30.14,29.93,13,8,28,0.00
2013-11-20,47.5,44.0,38.8,42.7,38.1,32.4,92,80,68,29.92,29.67,18,11,34,0.07
2013-11-21,42.3,40.1,38.1,35.6,33.4,31.1,80,77,74,30.12,29.82,10,6,23,0.00
2013-11-22,44.8,38.8,34.0,38.0,34.8,32.1,94,85,77,30.30,30.12,4,2,13,0.02
2013-11-23,46.9,42.7,34.2,42.7,39.2,30.6,93,88,78,30.44,30.30,5,3,14,0.00
2013-11-24,47.1,44.9,43.9,43.2,42.1,40.8,93,90,85,30.67,30.44,4,1,10,0.00
2013-11-25,47.8,44.8,43.2,40.7,39.0,37.8,89,80,70,30.78,30.67,5,2,12,0.00
2013-11-26,49.3,46.3,41.4,44.1,41.8,37.2,90,84,79,30.78,30.66,7,4,16,0.00
2013-11-27,49.6,48.4,45.1,45.8,44.3,42.7,92,86,81,30.66,30.60,7,4,17,0.00
2013-11-28,51.4,49.2,47.7,50.3,47.0,44.0,97,92,83,30.64,30.54,5,2,12,0.02
2013-11-29,50.4,47.2,43.2,46.6,42.4,40.0,91,83,77,30.54,30.35,13,8,29,0.00
2013-11-30,48.4,44.8,41.5,43.7,41.4,38.8,91,88,81,30.53,30.40,10,5,20,0.00
2013-12-1,51.6,47.8,45.1,45.7,44.3,42.9,94,88,77,30.57,30.52,5,2,12,0.00
2013-12-2,50.5,46.6,42.4,44.1,42.5,38.9,95,86,76,30.57,30.42,5,1,10,0.00
2013-12-3,52.5,45.0,35.1,46.5,41.5,33.5,97,88,76,30.42,30.24,7,2,17,0.01
2013-12-4,46.2,42.7,39.6,43.1,37.7,35.6,94,82,74,30.49,30.30,8,6,20,0.02
2013-12-5,52.3,45.2,39.9,47.1,39.3,36.4,89,80,72,30.42,30.02,24,12,47,0.02
2013-12-6,49.8,45.3,39.9,45.1,41.6,36.1,92,87,82,30.38,30.33,8,4,21,0.00
2013-12-7,49.1,47.3,44.8,43.8,42.7,41.1,88,84,81,30.33,30.14,9,5,19,0.00
2013-12-8,56.5,52.2,47.3,48.1,46.4,43.0,86,81,72,30.17,30.07,14,8,31,0.00
2013-12-9,53.6,50.6,48.0,46.9,45.2,42.7,87,82,74,30.23,30.17,8,4,16,0.00
2013-12-10,55.2,53.5,50.4,50.8,48.6,46.0,89,84,72,30.23,30.15,10,5,24,0.00
2013-12-11,54.0,51.5,49.8,50.7,47.2,45.0,90,85,82,30.24,30.01,12,8,32,0.00
2013-12-12,60.4,56.0,53.2,55.9,52.9,48.5,96,89,84,30.01,29.88,12,7,26,0.01
2013-12-13,55.6,50.8,42.3,53.3,45.1,35.6,95,81,69,30.05,29.74,15,7,31,0.03
2013-12-14,55.2,49.2,40.6,50.6,44.3,35.1,90,83,74,30.06,29.53,18,8,37,0.29
2013-12-15,56.1,49.9,42.4,49.7,43.8,36.6,90,80,67,29.96,29.59,16,8,36,0.01
2013-12-16,51.8,44.6,41.5,46.1,38.6,35.2,90,80,72,30.07,29.60,12,5,21,0.08
2013-12-17,48.2,42.3,31.5,43.0,36.2,28.6,93,79,71,30.15,29.71,11,5,26,0.00
2013-12-18,53.4,48.6,39.4,51.8,45.2,34.8,96,88,74,29.71,28.81,15,8,36,0.53
2013-12-19,41.4,39.3,38.1,35.8,33.8,31.6,88,81,73,29.71,29.13,16,11,31,0.05
2013-12-20,54.9,47.6,39.6,49.3,42.1,34.5,89,81,72,29.89,29.51,18,11,41,0.13
2013-12-21,51.3,46.2,41.4,45.2,40.2,34.7,92,80,70,29.64,29.36,16,11,32,0.33
2013-12-22,43.9,39.9,35.6,37.3,34.5,32.9,91,81,70,29.71,29.47,15,10,39,0.18
2013-12-23,53.9,47.6,36.9,49.8,43.1,32.8,95,85,73,29.67,28.39,15,9,37,0.45
2013-12-24,44.4,41.2,39.0,36.7,32.4,26.7,83,71,57,28.74,28.43,19,12,40,0.03
2013-12-25,45.1,36.1,29.5,36.5,31.6,27.8,96,84,69,29.14,28.73,7,1,14,0.00
2013-12-26,50.0,41.8,30.7,48.6,37.9,28.4,96,86,74,29.37,28.51,21,6,39,0.60
2013-12-27,48.7,44.5,39.6,42.0,38.6,36.1,89,80,68,29.05,28.37,22,16,49,0.18
2013-12-28,45.3,41.2,37.8,37.2,35.8,34.1,89,81,72,29.70,29.05,12,6,25,0.00
2013-12-29,51.1,44.0,38.1,48.8,39.3,33.5,94,84,74,29.90,29.46,11,6,23,0.18
2013-12-30,51.4,45.6,41.2,49.5,42.6,37.2,95,89,80,29.66,29.26,10,6,26,0.61
2013-12-31,49.3,44.0,39.4,45.9,39.8,34.9,93,85,68,29.46,29.18,12,6,31,0.41
2014-1-1,51.1,44.5,37.9,49.4,41.8,35.5,100,90,82,29.27,28.62,13,7,31,0.80
2014-1-2,48.9,45.9,42.1,47.6,40.8,37.5,96,82,73,29.18,28.83,13,6,27,0.17